Springfield, IL

12:09 AM CST on January 20, 2017 (GMT -0600)
Capital

Weather History for KSPI - January, 2012

Change the Weather History Date:

Friday, January 13, 2012

  Actual Average Record
Temperature  
Mean Temperature 13 °F 26 °F  
Max Temperature 19 °F 34 °F 60 °F (1950)
Min Temperature 6 °F 19 °F -11 °F (1912)
Degree Days  
Heating Degree Days 52 39  
Month to date heating degree days 396 496  
Since 1 July heating degree days 2149 2636  
Cooling Degree Days 0 0  
Month to date cooling degree days 0 0  
Year to date cooling degree days 0 0  
Moisture  
Dew Point 9 °F    
Average Humidity 75    
Maximum Humidity 83    
Minimum Humidity 67    
Precipitation  
Precipitation T in 0.05 in 1.66 in (1995)
Month to date precipitation 0.29 0.82  
Year to date precipitation 0.29 0.82  
Snow  
Snow T in 0.20 in 5.10 in (1968)
Month to date snowfall 3.9 2.7  
Since 1 July snowfall 4.0 8.9  
Snow Depth 4.00 in    
Sea Level Pressure  
Sea Level Pressure 30.00 in    
Wind  
Wind Speed 13 mph (West)    
Max Wind Speed 22 mph    
Max Gust Speed 29 mph    
Visibility 9 miles    
Events Snow    
T = Trace of Precipitation, MM = Missing Value Source: NWS Daily Summary

Daily Weather History Graph

Daily Weather History Graph

Search for Another Location

Airport or City:

Trip Planner

Search our weather history database for the weather conditions in past years. The results will help you decide how hot, cold, wet, or windy it might be!

Date:

Astronomy

Jan. 13, 2012 Rise Set
Actual Time 7:19 AM CST 4:55 PM CST
Civil Twilight 6:49 AM CST 5:25 PM CST
Nautical Twilight 6:15 AM CST 5:58 PM CST
Astronomical Twilight 5:43 AM CST 6:31 PM CST
Moon 10:08 PM CST (1/13) 9:34 AM CST (1/13)
Length of Visible Light 10h 36m
Length of Day
9h 36m
Waning Gibbous, 78% of the Moon is Illuminated
Jan 13
Waning Gibbous
Jan 16
Last Quarter
Jan 23
New
Jan 30
First Quarter
Feb 7
Full

Hourly Weather History & Observations

Time (CST) Temp. Windchill Dew Point Humidity Pressure Visibility Wind Dir Wind Speed Gust Speed Precip Events Conditions
12:13 AM 14.0 °F -3.4 °F 8.6 °F 79% 29.82 in 2.5 mi West 19.6 mph 28.8 mph 0.00 in Snow Light Snow
12:28 AM 14.0 °F -3.4 °F 8.6 °F 79% 29.82 in 5.0 mi WNW 19.6 mph 28.8 mph 0.00 in Snow Light Snow
12:40 AM 14.0 °F -2.5 °F 6.8 °F 73% 29.82 in 7.0 mi WNW 17.3 mph - 0.00 in Snow Light Snow
12:48 AM 14.0 °F -2.0 °F 6.8 °F 73% 29.82 in 7.0 mi West 16.1 mph 25.3 mph 0.00 in Snow Light Snow
12:52 AM 14.0 °F -3.4 °F 7.0 °F 74% 29.86 in 5.0 mi West 19.6 mph 25.3 mph 0.00 in Snow Light Snow
1:02 AM 14.0 °F -2.0 °F 6.8 °F 73% 29.83 in 4.0 mi West 16.1 mph - 0.00 in Snow Light Snow
1:52 AM 14.0 °F -2.0 °F 8.1 °F 77% 29.88 in 10.0 mi West 16.1 mph - 0.00 in   Overcast
2:28 AM 14.0 °F -3.0 °F 6.8 °F 73% 29.86 in 10.0 mi West 18.4 mph 25.3 mph N/A   Overcast
2:52 AM 15.1 °F -0.6 °F 8.1 °F 74% 29.90 in 10.0 mi West 16.1 mph 27.6 mph N/A   Overcast
3:52 AM 15.1 °F -1.6 °F 8.1 °F 74% 29.91 in 9.0 mi West 18.4 mph 28.8 mph 0.00 in   Overcast
4:26 AM 15.8 °F 1.4 °F 8.6 °F 73% 29.88 in 10.0 mi West 13.8 mph - N/A   Overcast
4:52 AM 15.1 °F -0.6 °F 8.1 °F 74% 29.92 in 10.0 mi West 16.1 mph 26.5 mph N/A   Overcast
5:11 AM 15.8 °F 1.4 °F 8.6 °F 73% 29.90 in 10.0 mi West 13.8 mph 21.9 mph N/A   Overcast
5:18 AM 15.8 °F -0.6 °F 8.6 °F 73% 29.90 in 10.0 mi West 18.4 mph 23.0 mph N/A   Overcast
5:52 AM 15.1 °F 1.1 °F 8.1 °F 74% 29.94 in 10.0 mi West 12.7 mph - N/A   Overcast
6:21 AM 15.8 °F 1.4 °F 8.6 °F 73% 29.93 in 10.0 mi West 13.8 mph 20.7 mph N/A   Overcast
6:52 AM 14.0 °F -0.2 °F 7.0 °F 74% 29.97 in 10.0 mi West 12.7 mph - N/A   Overcast
7:52 AM 12.9 °F -1.6 °F 6.1 °F 74% 30.00 in 10.0 mi West 12.7 mph - N/A   Partly Cloudy
8:10 AM 12.2 °F -2.5 °F 6.8 °F 79% 29.97 in 10.0 mi West 12.7 mph - N/A   Mostly Cloudy
8:52 AM 15.1 °F 1.1 °F 7.0 °F 70% 30.02 in 10.0 mi West 12.7 mph - N/A   Overcast
9:41 AM 17.6 °F 1.7 °F 8.6 °F 68% 30.01 in 10.0 mi West 18.4 mph 25.3 mph N/A   Overcast
9:52 AM 17.1 °F 0.6 °F 9.0 °F 71% 30.05 in 10.0 mi West 19.6 mph - N/A   Overcast
10:06 AM 17.6 °F 0.9 °F 8.6 °F 68% 30.02 in 10.0 mi West 20.7 mph - N/A   Overcast
10:30 AM 17.6 °F 1.7 °F 8.6 °F 68% 30.03 in 9.0 mi West 18.4 mph - 0.00 in Snow Light Snow
10:52 AM 17.1 °F 1.0 °F 9.0 °F 71% 30.06 in 8.0 mi West 18.4 mph - 0.00 in Snow Light Snow
11:52 AM 18.0 °F 3.6 °F 10.0 °F 71% 30.06 in 8.0 mi West 15.0 mph - 0.00 in Snow Light Snow
11:59 AM 17.6 °F 2.7 °F 10.4 °F 73% 30.03 in 6.0 mi West 16.1 mph 24.2 mph 0.00 in Snow Light Snow
12:23 PM 17.6 °F 2.7 °F 10.4 °F 73% 30.03 in 8.0 mi West 16.1 mph 23.0 mph 0.00 in Snow Light Snow
12:32 PM 17.6 °F 2.7 °F 10.4 °F 73% 30.03 in 9.0 mi West 16.1 mph - 0.00 in Snow Light Snow
12:52 PM 18.0 °F 2.2 °F 10.9 °F 74% 30.06 in 9.0 mi West 18.4 mph - 0.00 in   Overcast
1:09 PM 17.6 °F 1.7 °F 10.4 °F 73% 30.03 in 9.0 mi West 18.4 mph - 0.00 in Snow Light Snow
1:52 PM 19.0 °F 4.0 °F 10.0 °F 68% 30.06 in 10.0 mi West 17.3 mph - 0.00 in   Overcast
2:08 PM 19.4 °F 6.6 °F 12.2 °F 74% 30.04 in 10.0 mi WSW 12.7 mph - N/A   Overcast
2:52 PM 19.0 °F 5.6 °F 10.9 °F 71% 30.08 in 9.0 mi West 13.8 mph - 0.00 in   Overcast
3:52 PM 19.0 °F 5.6 °F 10.9 °F 71% 30.10 in 10.0 mi West 13.8 mph - 0.00 in   Overcast
4:52 PM 19.0 °F 7.5 °F 10.9 °F 71% 30.12 in 10.0 mi West 10.4 mph - N/A   Overcast
5:52 PM 19.0 °F 8.2 °F 12.0 °F 74% 30.13 in 10.0 mi West 9.2 mph - 0.00 in   Overcast
6:52 PM 18.0 °F 5.4 °F 10.9 °F 74% 30.15 in 9.0 mi WSW 11.5 mph - 0.00 in Snow Light Snow
7:52 PM 17.1 °F 5.8 °F 10.0 °F 74% 30.16 in 10.0 mi WSW 9.2 mph - 0.00 in   Overcast
8:21 PM 12.2 °F 1.7 °F 6.8 °F 79% 30.13 in 10.0 mi WSW 6.9 mph - N/A   Partly Cloudy
8:52 PM 10.4 °F 0.8 °F 5.0 °F 79% 30.13 in 10.0 mi WSW 5.8 mph - N/A   Clear
9:52 PM 10.0 °F - 5.0 °F 80% 30.16 in 10.0 mi Calm Calm - N/A   Clear
10:52 PM 8.1 °F - 5.0 °F 87% 30.16 in 10.0 mi Calm Calm - N/A   Clear
11:52 PM 9.0 °F 0.6 °F 5.0 °F 84% 30.15 in 10.0 mi SSW 4.6 mph - N/A   Clear